Home   Weather   Paterson   Past weeks
Flag for USA

Past Weather in Paterson, New Jersey, USA — Yesterday and Last 2 Weeks

Now
59 °F

Clear.


Feels Like: 58 °F
Forecast: 64 / 54 °F
Wind: 6 mph from North

Location: Essex County Airport

Current Time: Apr 20, 2019 at 8:34:20 pm

Latest Report: Apr 20, 2019 at 7:53 pm


Visibility: 10 mi

Pressure: 29.82 "Hg

Humidity: 72%

Dew Point: 50 °F

Location of PatersonLocation

Past Weather in Paterson — Graph

°F

Paterson Temperature Yesterday

Maximum temperature yesterday: 79 °F (at 1:53 pm)
Minimum temperature yesterday: 51 °F (at 1:53 am)
Average temperature yesterday: 69 °F

High & Low Weather Summary for the Past Weeks

 TemperatureHumidityPressure
High79 °F (Apr 19, 1:53 pm)100% (Apr 5, 9:53 pm)30.36 "Hg (Apr 5, 9:53 pm)
Low37 °F (Apr 5, 6:53 pm)14% (Apr 16, 2:53 pm)29.31 "Hg (Apr 15, 3:53 am)
Average56 °F71%29.95 "Hg
* Reported Apr 5 6:53 pm — Apr 20 6:53 pm, Paterson. Weather by CustomWeather, © 2019

Note: Actual official high and low records may vary slightly from our data, if they occured in-between our weather recording intervals... More about our weather records

Advertising

Paterson Weather History for the Previous 24 Hours

Scroll right to see more
 ConditionsComfort  
Time TempWeatherWind HumidityBarometerVisibility
6:53 pm
Sat, Apr 20
61 °FSunny.13 mph72%29.79 "Hg10 mi
5:53 pm62 °FBroken clouds.15 mph78%29.76 "Hg10 mi
4:53 pm63 °FPassing clouds.14 mph84%29.76 "Hg9 mi
4:00 pm62 °FScattered clouds.16 mph93%29.72 "Hg8 mi
2:53 pm69 °FScattered clouds.12 mph84%29.72 "Hg10 mi
1:53 pm65 °FFog.9 mph100%29.74 "Hg3 mi
1:42 pm65 °FLight rain. Fog.8 mph97%29.73 "Hg2 mi
1:31 pm65 °FLight rain. Fog.12 mph97%29.74 "Hg2 mi
1:00 pm66 °FOvercast.9 mph93%29.73 "Hg7 mi
11:53 am67 °FPartly sunny.10 mph93%29.75 "Hg10 mi
10:53 am68 °FLight rain. Cloudy.13 mph90%29.75 "Hg8 mi
9:53 am68 °FMostly cloudy.14 mph93%29.73 "Hg10 mi
9:02 am65 °FLight rain. More clouds than sun.12 mph97%29.71 "Hg9 mi
7:53 am63 °FCloudy.13 mph97%29.73 "Hg10 mi
7:40 am63 °FLight rain. Fog.9 mph97%29.71 "Hg3 mi
7:28 am63 °FRain. Fog.8 mph100%29.72 "Hg2 mi
7:18 am63 °FHeavy rain. Fog.7 mph100%29.71 "Hg1 mi
6:53 am63 °FStrong thunderstorms. Fog.3 mph100%29.73 "Hg1 mi
6:44 am64 °FHeavy rain. Fog.6 mph97%29.72 "Hg2 mi
6:31 am64 °FThunderstorms. Overcast.9 mph97%29.72 "Hg7 mi
5:53 am66 °FOvercast.9 mph96%29.71 "Hg10 mi
5:03 am67 °FMostly cloudy.6 mph93%29.71 "Hg10 mi
3:53 am66 °FMostly cloudy.8 mph93%29.72 "Hg10 mi
3:35 am66 °FMostly cloudy.8 mph93%29.70 "Hg10 mi
2:53 am67 °FPartly cloudy.7 mph97%29.71 "Hg10 mi
1:53 am68 °FLight rain. Fog.8 mph96%29.72 "Hg5 mi
12:53 am68 °FLight rain. Mostly cloudy.6 mph96%29.72 "Hg7 mi
12:32 am69 °FRain. Fog.12 mph93%29.71 "Hg2 mi
11:53 pm
Fri, Apr 19
70 °FLight rain. Mostly cloudy.14 mph90%29.72 "Hg7 mi
10:53 pm71 °FOvercast.14 mph87%29.72 "Hg10 mi
9:53 pm70 °FOvercast.12 mph87%29.72 "Hg10 mi
8:53 pm72 °FLight rain. Overcast.14 mph78%29.73 "Hg10 mi
Weather by CustomWeather, © 2019

See weather overview